Weather in La Chorrera

Colombia     1°26′23″S   72°47′34″W
temp.,
°C
wind,
m/s
gust,
m/s
humid.,
%
clouds,
%
prec.,
mm/h
press.,
hPa
HPBL,
m
12 may, wed
wed1201:00+22n119995 6.1 101227
04:00+22n1410078 1.6 1012146
07:00+22nnw159996 1.9 1014208
10:00+28wnw126766 0.0 1015912
13:00+26wnw119246 5.0 1012492
16:00+26sw129311 3.2 1010390
19:00+22wsw119840 5.4 101211
22:00+22w119926 0.0 101412
13 may, thu
thu1301:00+21w1199100 0.0 101318
04:00+22w1199100 0.0 101250
07:00+22wnw1298100 0.1 101488
10:00+23wnw119548 0.0 1015167
13:00+31nw235443 0.3 10111577
16:00+27n13907 1.8 1009290
19:00+23nnw119841 2.6 101111
22:00+23nne119885 0.0 101313
14 may, fri
fri1401:00+22nnw0099100 0.0 101216
04:00+22sse0099100 0.2 101221
07:00+22n1199100 0.2 101334
10:00+23s019867 0.7 101489
13:00+28ese118125 2.8 1010774
16:00+28ne017944 2.1 1008609
19:00+23s0197100 3.5 101011
22:00+22e0199100 4.2 101215
15 may, sat
sat1501:00+22s0099100 5.1 101116
04:00+22e1199100 0.8 101117
07:00+22ese1299100 5.1 1013123
10:00+25ese249199 0.0 1014434
13:00+25e248799 0.9 1011518
16:00+24e119695 0.0 100954
19:00+22sse0099100 0.0 101213
22:00+22s119994 0.1 101324
16 may, sun
sun1601:00+22sw13100100 0.4 1012116
04:00+22sw1410099 1.8 1012196
07:00+23wsw02100100 2.2 1013151
10:00+24s129796 2.4 1015202
13:00+24s139797 4.6 1012286
16:00+25n119398 0.6 101094
19:00+22ne1299100 3.8 101363
22:00+22ne14100100 7.4 1015225